TimeCDT,TemperatureF,Dew PointF,Humidity,Sea Level PressureIn,VisibilityMPH,Wind Direction,Wind SpeedMPH,Gust SpeedMPH,PrecipitationIn,Events,Conditions,WindDirDegrees,DateUTC
12:12 AM,12.2,3.2,67,29.74,10.0,WNW,16.1,-,N/A,,Clear,300,2013-03-19 05:12:00
12:32 AM,12.2,3.2,67,29.75,10.0,WNW,12.7,19.6,N/A,,Clear,290,2013-03-19 05:32:00
12:52 AM,12.2,3.2,67,29.75,10.0,WNW,13.8,21.9,N/A,,Clear,290,2013-03-19 05:52:00
1:12 AM,12.2,3.2,67,29.76,10.0,WNW,11.5,18.4,N/A,,Clear,290,2013-03-19 06:12:00
1:32 AM,10.4,1.4,67,29.76,10.0,WNW,15.0,20.7,N/A,,Clear,300,2013-03-19 06:32:00
1:52 AM,10.4,1.4,67,29.76,10.0,WNW,13.8,23.0,N/A,,Clear,300,2013-03-19 06:52:00
2:12 AM,10.4,1.4,67,29.77,10.0,WNW,15.0,21.9,N/A,,Clear,300,2013-03-19 07:12:00
2:32 AM,10.4,1.4,67,29.78,10.0,WNW,15.0,23.0,N/A,,Clear,300,2013-03-19 07:32:00
2:52 AM,10.4,1.4,67,29.79,10.0,WNW,13.8,19.6,N/A,,Clear,300,2013-03-19 07:52:00
3:12 AM,10.4,1.4,67,29.79,10.0,WNW,13.8,21.9,N/A,,Clear,300,2013-03-19 08:12:00
3:32 AM,10.4,1.4,67,29.80,10.0,WNW,15.0,25.3,N/A,,Clear,300,2013-03-19 08:32:00
3:52 AM,10.4,1.4,67,29.80,10.0,WNW,16.1,23.0,N/A,,Clear,300,2013-03-19 08:52:00
4:12 AM,10.4,1.4,67,29.81,10.0,WNW,11.5,24.2,N/A,,Clear,300,2013-03-19 09:12:00
4:32 AM,10.4,1.4,67,29.82,10.0,WNW,11.5,18.4,N/A,,Clear,300,2013-03-19 09:32:00
4:52 AM,8.6,1.4,73,29.83,10.0,WNW,11.5,-,N/A,,Clear,300,2013-03-19 09:52:00
5:12 AM,8.6,1.4,73,29.83,10.0,WNW,12.7,17.3,N/A,,Clear,300,2013-03-19 10:12:00
5:32 AM,8.6,1.4,73,29.84,10.0,WNW,13.8,19.6,N/A,,Clear,300,2013-03-19 10:32:00
5:52 AM,8.6,1.4,73,29.85,10.0,WNW,12.7,19.6,N/A,,Clear,300,2013-03-19 10:52:00
6:12 AM,8.6,1.4,73,29.86,10.0,WNW,11.5,19.6,N/A,,Clear,300,2013-03-19 11:12:00
6:32 AM,8.6,1.4,73,29.87,10.0,NW,15.0,20.7,N/A,,Clear,310,2013-03-19 11:32:00
6:52 AM,10.4,1.4,67,29.88,10.0,WNW,13.8,19.6,N/A,,Clear,300,2013-03-19 11:52:00
7:12 AM,8.6,-0.4,67,29.90,10.0,NW,13.8,19.6,N/A,,Clear,310,2013-03-19 12:12:00
7:32 AM,8.6,-0.4,67,29.90,10.0,NW,15.0,19.6,N/A,,Clear,310,2013-03-19 12:32:00
7:52 AM,8.6,-0.4,67,29.92,10.0,NW,15.0,21.9,N/A,,Clear,310,2013-03-19 12:52:00
8:12 AM,10.4,-0.4,62,29.93,10.0,NW,15.0,24.2,N/A,,Clear,310,2013-03-19 13:12:00
8:32 AM,10.4,-0.4,62,29.94,10.0,NW,16.1,24.2,N/A,,Clear,310,2013-03-19 13:32:00
8:52 AM,12.2,1.4,62,29.94,10.0,NW,17.3,26.5,N/A,,Clear,310,2013-03-19 13:52:00
9:12 AM,12.2,1.4,62,29.95,10.0,NW,17.3,24.2,N/A,,Clear,320,2013-03-19 14:12:00
9:32 AM,12.2,1.4,62,29.96,10.0,NW,17.3,24.2,N/A,,Clear,310,2013-03-19 14:32:00
9:52 AM,14.0,1.4,57,29.96,10.0,NW,17.3,23.0,N/A,,Clear,320,2013-03-19 14:52:00
10:12 AM,14.0,1.4,57,29.97,10.0,NW,11.5,21.9,N/A,,Clear,310,2013-03-19 15:12:00
10:31 AM,14.0,1.4,57,29.97,10.0,NW,15.0,20.7,N/A,,Clear,320,2013-03-19 15:31:00
10:52 AM,17.6,1.4,49,29.98,10.0,NW,15.0,20.7,N/A,,Clear,310,2013-03-19 15:52:00
11:12 AM,17.6,1.4,49,29.98,10.0,NW,19.6,25.3,N/A,,Clear,310,2013-03-19 16:12:00
11:32 AM,19.4,1.4,46,29.99,7.0,NW,18.4,24.2,N/A,,Clear,320,2013-03-19 16:32:00
11:52 AM,19.4,1.4,46,29.99,0.5,NW,16.1,25.3,N/A,Snow,Light Snow,310,2013-03-19 16:52:00
12:12 PM,21.2,3.2,46,29.99,1.2,NW,12.7,20.7,N/A,Snow,Light Snow,320,2013-03-19 17:12:00
12:32 PM,23.0,1.4,39,29.99,1.8,NW,13.8,23.0,N/A,,Haze,310,2013-03-19 17:32:00
12:52 PM,23.0,3.2,43,30.00,2.0,NW,13.8,19.6,N/A,,Haze,310,2013-03-19 17:52:00
1:12 PM,24.8,3.2,40,30.00,7.0,WNW,13.8,18.4,N/A,,Clear,290,2013-03-19 18:12:00
1:32 PM,24.8,3.2,40,30.00,3.0,WNW,11.5,19.6,N/A,,Haze,290,2013-03-19 18:32:00
1:52 PM,24.8,3.2,40,30.00,4.0,West,15.0,18.4,N/A,,Haze,280,2013-03-19 18:52:00
2:12 PM,26.6,3.2,37,30.01,5.0,WNW,10.4,20.7,N/A,,Haze,290,2013-03-19 19:12:00
2:32 PM,26.6,3.2,37,30.01,1.8,WNW,12.7,19.6,N/A,,Haze,290,2013-03-19 19:32:00
2:52 PM,26.6,3.2,37,30.01,1.2,WNW,17.3,24.2,N/A,,Haze,290,2013-03-19 19:52:00
3:12 PM,26.6,3.2,37,30.01,4.0,WNW,15.0,20.7,N/A,,Haze,290,2013-03-19 20:12:00
3:32 PM,24.8,1.4,36,30.02,1.8,West,13.8,21.9,N/A,,Haze,280,2013-03-19 20:32:00
3:52 PM,24.8,1.4,36,30.02,5.0,WNW,16.1,21.9,N/A,Snow,Light Snow,300,2013-03-19 20:52:00
4:12 PM,24.8,1.4,36,30.02,10.0,WNW,15.0,18.4,N/A,,Mostly Cloudy,290,2013-03-19 21:12:00
4:32 PM,26.6,3.2,37,30.03,10.0,WNW,10.4,21.9,N/A,,Overcast,300,2013-03-19 21:32:00
4:52 PM,24.8,1.4,36,30.04,10.0,WNW,11.5,19.6,N/A,,Mostly Cloudy,290,2013-03-19 21:52:00
5:12 PM,24.8,1.4,36,30.04,5.0,WNW,15.0,23.0,N/A,,Haze,290,2013-03-19 22:12:00
5:31 PM,24.8,1.4,36,30.05,10.0,WNW,10.4,21.9,N/A,,Clear,300,2013-03-19 22:31:00
5:52 PM,23.0,-0.4,36,30.06,10.0,WNW,16.1,19.6,N/A,,Clear,300,2013-03-19 22:52:00
6:12 PM,21.2,1.4,42,30.07,10.0,NW,12.7,-,N/A,,Clear,310,2013-03-19 23:12:00
6:32 PM,21.2,-0.4,39,30.07,10.0,WNW,13.8,20.7,N/A,,Clear,300,2013-03-19 23:32:00
6:52 PM,19.4,-0.4,42,30.08,10.0,WNW,17.3,21.9,N/A,,Clear,290,2013-03-19 23:52:00
7:12 PM,19.4,-0.4,42,30.09,10.0,WNW,13.8,-,N/A,,Clear,300,2013-03-20 00:12:00
7:32 PM,17.6,-2.2,42,30.10,10.0,WNW,16.1,24.2,N/A,,Clear,290,2013-03-20 00:32:00
7:52 PM,17.6,-4.0,38,30.10,10.0,WNW,16.1,21.9,N/A,,Clear,290,2013-03-20 00:52:00
8:12 PM,15.8,-5.8,38,30.11,10.0,WNW,13.8,23.0,N/A,,Clear,300,2013-03-20 01:12:00
8:32 PM,14.0,-5.8,41,30.12,10.0,WNW,15.0,23.0,N/A,,Clear,300,2013-03-20 01:32:00
8:52 PM,14.0,-4.0,45,30.12,10.0,WNW,13.8,21.9,N/A,,Clear,290,2013-03-20 01:52:00
9:12 PM,14.0,-5.8,41,30.12,10.0,WNW,16.1,23.0,N/A,,Clear,300,2013-03-20 02:12:00
9:32 PM,12.2,-5.8,45,30.12,10.0,NW,16.1,21.9,N/A,,Clear,310,2013-03-20 02:32:00
9:52 PM,12.2,-5.8,45,30.12,10.0,WNW,13.8,23.0,N/A,,Clear,300,2013-03-20 02:52:00
10:12 PM,12.2,-5.8,45,30.13,10.0,NW,18.4,24.2,N/A,,Clear,310,2013-03-20 03:12:00
10:32 PM,12.2,-5.8,45,30.13,10.0,NW,18.4,24.2,N/A,,Clear,310,2013-03-20 03:32:00
10:52 PM,10.4,-5.8,48,30.13,10.0,NW,19.6,25.3,N/A,,Clear,310,2013-03-20 03:52:00
11:11 PM,10.4,-5.8,48,30.13,10.0,NW,16.1,23.0,N/A,,Clear,320,2013-03-20 04:11:00
11:32 PM,10.4,-5.8,48,30.13,10.0,NW,15.0,25.3,N/A,,Clear,310,2013-03-20 04:32:00
11:52 PM,10.4,-5.8,48,30.14,10.0,NW,18.4,21.9,N/A,,Clear,310,2013-03-20 04:52:00